Time,TemperatureF,DewpointF,PressureIn,WindDirection,WindDirectionDegrees,WindSpeedMPH,WindSpeedGustMPH,Humidity,HourlyPrecipIn,Conditions,Clouds,dailyrainin,SoftwareType,DateUTC
2013-02-20 06:28:00,32.0,4.1,29.71,North,-999,0.0,0.0,30,0.00,,,-99.99,FreeWX-Wi 1.02,2013-02-20 11:28:00,
2013-02-20 06:33:00,32.0,4.1,29.71,North,-999,0.0,0.0,30,0.00,,,-99.99,FreeWX-Wi 1.02,2013-02-20 11:33:00,
2013-02-20 06:38:00,32.0,6.3,29.71,North,-999,0.0,0.0,33,0.00,,,-99.99,FreeWX-Wi 1.02,2013-02-20 11:38:00,
2013-02-20 06:43:00,31.8,6.1,29.71,North,-999,0.0,0.0,33,0.00,,,-99.99,FreeWX-Wi 1.02,2013-02-20 11:43:00,
2013-02-20 06:48:00,31.8,7.3,29.74,North,-999,0.0,0.0,35,0.00,,,-99.99,FreeWX-Wi 1.02,2013-02-20 11:48:00,
2013-02-20 06:53:00,31.3,6.8,29.74,North,-999,0.0,0.0,35,0.00,,,-99.99,FreeWX-Wi 1.02,2013-02-20 11:53:00,
2013-02-20 06:58:00,30.7,9.3,29.74,North,-999,0.0,0.0,40,0.00,,,-99.99,FreeWX-Wi 1.02,2013-02-20 11:58:00,
2013-02-20 07:03:00,30.6,8.1,29.74,North,-999,0.0,0.0,38,0.00,,,-99.99,FreeWX-Wi 1.02,2013-02-20 12:03:00,
2013-02-20 07:08:00,30.2,11.5,29.74,North,-999,0.0,0.0,45,0.00,,,-99.99,FreeWX-Wi 1.02,2013-02-20 12:08:00,
2013-02-20 07:13:00,29.8,11.7,29.74,North,-999,0.0,0.0,46,0.00,,,-99.99,FreeWX-Wi 1.02,2013-02-20 12:13:00,
2013-02-20 07:18:00,29.8,11.7,29.74,North,-999,0.0,0.0,46,0.00,,,-99.99,FreeWX-Wi 1.02,2013-02-20 12:18:00,
2013-02-20 07:23:00,30.0,11.3,29.74,North,-999,0.0,0.0,45,0.00,,,-99.99,FreeWX-Wi 1.02,2013-02-20 12:23:00,
2013-02-20 07:28:00,30.6,10.8,29.74,North,-999,0.0,0.0,43,0.00,,,-99.99,FreeWX-Wi 1.02,2013-02-20 12:28:00,
2013-02-20 07:33:00,32.2,7.7,29.76,North,-999,0.0,0.0,35,0.00,,,-99.99,FreeWX-Wi 1.02,2013-02-20 12:33:00,
2013-02-20 07:38:00,32.7,4.8,29.76,North,-999,0.0,0.0,30,0.00,,,-99.99,FreeWX-Wi 1.02,2013-02-20 12:38:00,
2013-02-20 07:43:00,32.7,3.2,29.76,North,-999,0.0,0.0,28,0.00,,,-99.99,FreeWX-Wi 1.02,2013-02-20 12:43:00,
2013-02-20 07:48:00,32.5,2.3,29.76,North,-999,0.0,0.0,27,0.00,,,-99.99,FreeWX-Wi 1.02,2013-02-20 12:48:00,
2013-02-20 07:53:00,33.1,2.8,29.76,North,-999,0.0,0.0,27,0.00,,,-99.99,FreeWX-Wi 1.02,2013-02-20 12:53:00,
2013-02-20 07:58:00,32.4,2.1,29.76,North,-999,0.0,0.0,27,0.00,,,-99.99,FreeWX-Wi 1.02,2013-02-20 12:58:00,
2013-02-20 08:03:00,33.4,3.0,29.76,North,-999,0.0,0.0,27,0.00,,,-99.99,FreeWX-Wi 1.02,2013-02-20 13:03:00,
2013-02-20 08:09:00,34.7,3.4,29.76,North,-999,0.0,0.0,26,0.00,,,-99.99,FreeWX-Wi 1.02,2013-02-20 13:09:00,
2013-02-20 08:14:00,34.3,3.0,29.76,North,-999,0.0,0.0,26,0.00,,,-99.99,FreeWX-Wi 1.02,2013-02-20 13:14:00,
2013-02-20 08:19:00,33.1,2.8,29.76,North,-999,0.0,0.0,27,0.00,,,-99.99,FreeWX-Wi 1.02,2013-02-20 13:19:00,
2013-02-20 08:24:00,32.5,2.3,29.76,North,-999,0.0,0.0,27,0.00,,,-99.99,FreeWX-Wi 1.02,2013-02-20 13:24:00,
2013-02-20 08:29:00,33.3,3.0,29.76,North,-999,0.0,0.0,27,0.00,,,-99.99,FreeWX-Wi 1.02,2013-02-20 13:29:00,
2013-02-20 08:34:00,33.1,2.8,29.76,North,-999,0.0,0.0,27,0.00,,,-99.99,FreeWX-Wi 1.02,2013-02-20 13:34:00,
2013-02-20 08:39:00,33.1,2.8,29.76,North,-999,0.0,0.0,27,0.00,,,-99.99,FreeWX-Wi 1.02,2013-02-20 13:39:00,
2013-02-20 08:44:00,33.3,3.0,29.76,North,-999,0.0,0.0,27,0.00,,,-99.99,FreeWX-Wi 1.02,2013-02-20 13:44:00,
2013-02-20 08:49:00,33.3,3.0,29.76,North,-999,0.0,0.0,27,0.00,,,-99.99,FreeWX-Wi 1.02,2013-02-20 13:49:00,
2013-02-20 08:54:00,33.6,3.2,29.76,North,-999,0.0,0.0,27,0.00,,,-99.99,FreeWX-Wi 1.02,2013-02-20 13:54:00,
2013-02-20 08:59:00,34.0,2.7,29.76,North,-999,0.0,0.0,26,0.00,,,-99.99,FreeWX-Wi 1.02,2013-02-20 13:59:00,
2013-02-20 09:04:00,33.4,3.0,29.76,North,-999,0.0,0.0,27,0.00,,,-99.99,FreeWX-Wi 1.02,2013-02-20 14:04:00,
2013-02-20 09:09:00,35.6,4.1,29.76,North,-999,0.0,0.0,26,0.00,,,-99.99,FreeWX-Wi 1.02,2013-02-20 14:09:00,
2013-02-20 09:14:00,37.6,5.0,29.76,North,-999,0.0,0.0,25,0.00,,,-99.99,FreeWX-Wi 1.02,2013-02-20 14:14:00,
2013-02-20 09:19:00,38.7,5.9,29.76,North,-999,0.0,0.0,25,0.00,,,-99.99,FreeWX-Wi 1.02,2013-02-20 14:19:00,
2013-02-20 09:25:00,39.2,6.4,29.76,North,-999,0.0,0.0,25,0.00,,,-99.99,FreeWX-Wi 1.02,2013-02-20 14:25:00,
2013-02-20 09:30:00,38.7,5.9,29.76,North,-999,0.0,5.8,25,0.00,,,-99.99,FreeWX-Wi 1.02,2013-02-20 14:30:00,
2013-02-20 09:35:00,37.4,4.8,29.76,WNW,292,1.0,6.7,25,0.00,,,-99.99,FreeWX-Wi 1.02,2013-02-20 14:35:00,
2013-02-20 09:40:00,34.7,3.4,29.76,WNW,287,1.0,6.3,26,0.00,,,-99.99,FreeWX-Wi 1.02,2013-02-20 14:40:00,
2013-02-20 09:45:00,35.1,3.7,29.76,WNW,283,2.0,6.3,26,0.00,,,-99.99,FreeWX-Wi 1.02,2013-02-20 14:45:00,
2013-02-20 09:50:00,36.0,4.5,29.76,WNW,282,2.0,8.1,26,0.00,,,-99.99,FreeWX-Wi 1.02,2013-02-20 14:50:00,
2013-02-20 09:55:00,37.9,5.4,29.76,West,277,3.0,6.3,25,0.00,,,-99.99,FreeWX-Wi 1.02,2013-02-20 14:55:00,
2013-02-20 10:00:00,36.3,4.8,29.76,West,276,3.0,7.2,26,0.00,,,-99.99,FreeWX-Wi 1.02,2013-02-20 15:00:00,
2013-02-20 10:05:00,36.1,4.6,29.76,West,280,3.0,6.3,26,0.00,,,-99.99,FreeWX-Wi 1.02,2013-02-20 15:05:00,
2013-02-20 10:10:00,35.4,3.9,29.76,West,281,3.0,6.7,26,0.00,,,-99.99,FreeWX-Wi 1.02,2013-02-20 15:10:00,
2013-02-20 10:15:00,35.4,3.9,29.76,West,279,3.0,6.3,26,0.00,,,-99.99,FreeWX-Wi 1.02,2013-02-20 15:15:00,
2013-02-20 10:20:00,35.1,3.7,29.76,West,281,3.0,7.6,26,0.00,,,-99.99,FreeWX-Wi 1.02,2013-02-20 15:20:00,
2013-02-20 10:25:00,35.1,3.7,29.76,WNW,285,3.0,5.8,26,0.00,,,-99.99,FreeWX-Wi 1.02,2013-02-20 15:25:00,
2013-02-20 10:30:00,35.2,3.7,29.76,WNW,285,3.0,7.6,26,0.00,,,-99.99,FreeWX-Wi 1.02,2013-02-20 15:30:00,
2013-02-20 10:35:00,37.0,5.4,29.76,WNW,290,4.0,7.6,26,0.00,,,-99.99,FreeWX-Wi 1.02,2013-02-20 15:35:00,
2013-02-20 10:40:00,38.1,5.4,29.76,WNW,284,4.0,5.8,25,0.00,,,-99.99,FreeWX-Wi 1.02,2013-02-20 15:40:00,
2013-02-20 10:45:00,37.2,5.5,29.76,West,281,4.0,6.7,26,0.00,,,-99.99,FreeWX-Wi 1.02,2013-02-20 15:45:00,
2013-02-20 10:50:00,38.7,5.9,29.76,West,277,3.0,5.8,25,0.00,,,-99.99,FreeWX-Wi 1.02,2013-02-20 15:50:00,
2013-02-20 10:55:00,37.9,5.4,29.76,West,271,4.0,5.8,25,0.00,,,-99.99,FreeWX-Wi 1.02,2013-02-20 15:55:00,
2013-02-20 11:00:00,37.8,5.2,29.76,West,271,3.0,5.8,25,0.00,,,-99.99,FreeWX-Wi 1.02,2013-02-20 16:00:00,
2013-02-20 11:05:00,36.7,5.0,29.76,West,271,3.0,6.3,26,0.00,,,-99.99,FreeWX-Wi 1.02,2013-02-20 16:05:00,
2013-02-20 11:10:00,36.1,4.6,29.76,West,276,3.0,6.3,26,0.00,,,-99.99,FreeWX-Wi 1.02,2013-02-20 16:10:00,
2013-02-20 11:15:00,35.1,3.7,29.76,WNW,283,3.0,7.6,26,0.00,,,-99.99,FreeWX-Wi 1.02,2013-02-20 16:15:00,
2013-02-20 11:20:00,36.5,5.0,29.76,WNW,288,3.0,6.7,26,0.00,,,-99.99,FreeWX-Wi 1.02,2013-02-20 16:20:00,
2013-02-20 11:25:00,38.8,6.1,29.76,WNW,289,3.0,7.2,25,0.00,,,-99.99,FreeWX-Wi 1.02,2013-02-20 16:25:00,
2013-02-20 11:30:00,40.5,7.5,29.76,WNW,288,3.0,6.3,25,0.00,,,-99.99,FreeWX-Wi 1.02,2013-02-20 16:30:00,
2013-02-20 11:35:00,37.4,4.8,29.76,WNW,290,3.0,6.3,25,0.00,,,-99.99,FreeWX-Wi 1.02,2013-02-20 16:35:00,
2013-02-20 11:40:00,36.1,4.6,29.76,WNW,286,3.0,8.3,26,0.00,,,-99.99,FreeWX-Wi 1.02,2013-02-20 16:40:00,
2013-02-20 11:45:00,37.0,5.4,29.76,WNW,285,2.0,5.8,26,0.00,,,-99.99,FreeWX-Wi 1.02,2013-02-20 16:45:00,
2013-02-20 11:50:00,38.8,6.1,29.76,WNW,289,2.0,5.4,25,0.00,,,-99.99,FreeWX-Wi 1.02,2013-02-20 16:50:00,
2013-02-20 11:55:00,38.3,5.5,29.76,WNW,294,2.0,6.3,25,0.00,,,-99.99,FreeWX-Wi 1.02,2013-02-20 16:55:00,
2013-02-20 12:00:00,39.4,6.4,29.76,WNW,295,3.0,8.7,25,0.00,,,-99.99,FreeWX-Wi 1.02,2013-02-20 17:00:00,
2013-02-20 12:05:00,39.4,6.4,29.76,WNW,293,3.0,8.1,25,0.00,,,-99.99,FreeWX-Wi 1.02,2013-02-20 17:05:00,
2013-02-20 12:10:00,37.8,5.2,29.76,WNW,293,3.0,6.3,25,0.00,,,-99.99,FreeWX-Wi 1.02,2013-02-20 17:10:00,
2013-02-20 12:15:00,38.7,5.9,29.76,WNW,288,3.0,7.6,25,0.00,,,-99.99,FreeWX-Wi 1.02,2013-02-20 17:15:00,
2013-02-20 12:20:00,36.7,5.0,29.76,WNW,289,3.0,6.3,26,0.00,,,-99.99,FreeWX-Wi 1.02,2013-02-20 17:20:00,
2013-02-20 12:25:00,35.6,4.1,29.76,WNW,283,3.0,7.2,26,0.00,,,-99.99,FreeWX-Wi 1.02,2013-02-20 17:25:00,
2013-02-20 12:30:00,36.3,4.8,29.76,WNW,287,3.0,5.8,26,0.00,,,-99.99,FreeWX-Wi 1.02,2013-02-20 17:30:00,
2013-02-20 12:35:00,36.1,4.6,29.76,WNW,288,3.0,8.7,26,0.00,,,-99.99,FreeWX-Wi 1.02,2013-02-20 17:35:00,
2013-02-20 12:40:00,36.7,5.0,29.76,WNW,286,3.0,8.3,26,0.00,,,-99.99,FreeWX-Wi 1.02,2013-02-20 17:40:00,
2013-02-20 12:45:00,36.0,4.5,29.76,WNW,286,4.0,5.8,26,0.00,,,-99.99,FreeWX-Wi 1.02,2013-02-20 17:45:00,
2013-02-20 12:50:00,34.9,3.6,29.76,WNW,287,4.0,8.7,26,0.00,,,-99.99,FreeWX-Wi 1.02,2013-02-20 17:50:00,
2013-02-20 12:55:00,35.2,3.7,29.76,WNW,285,4.0,10.1,26,0.00,,,-99.99,FreeWX-Wi 1.02,2013-02-20 17:55:00,
2013-02-20 13:00:00,36.1,4.6,29.76,West,279,4.0,4.9,26,0.00,,,-99.99,FreeWX-Wi 1.02,2013-02-20 18:00:00,
2013-02-20 13:05:00,35.4,3.9,29.76,West,279,4.0,8.1,26,0.00,,,-99.99,FreeWX-Wi 1.02,2013-02-20 18:05:00,
2013-02-20 13:10:00,34.9,3.6,29.76,West,280,4.0,5.8,26,0.00,,,-99.99,FreeWX-Wi 1.02,2013-02-20 18:10:00,
2013-02-20 13:15:00,35.6,4.1,29.76,WNW,285,4.0,10.5,26,0.00,,,-99.99,FreeWX-Wi 1.02,2013-02-20 18:15:00,
2013-02-20 13:20:00,35.6,4.1,29.76,WNW,285,4.0,7.6,26,0.00,,,-99.99,FreeWX-Wi 1.02,2013-02-20 18:20:00,
2013-02-20 13:25:00,39.4,6.4,29.76,WNW,287,4.0,8.1,25,0.00,,,-99.99,FreeWX-Wi 1.02,2013-02-20 18:25:00,
2013-02-20 13:30:00,37.8,5.2,29.76,WNW,287,4.0,7.2,25,0.00,,,-99.99,FreeWX-Wi 1.02,2013-02-20 18:30:00,
2013-02-20 13:35:00,38.1,5.4,29.76,WNW,284,3.0,5.4,25,0.00,,,-99.99,FreeWX-Wi 1.02,2013-02-20 18:35:00,
2013-02-20 13:40:00,38.7,5.9,29.76,WNW,282,3.0,8.1,25,0.00,,,-99.99,FreeWX-Wi 1.02,2013-02-20 18:40:00,
2013-02-20 13:45:00,38.8,6.1,29.76,West,279,3.0,5.8,25,0.00,,,-99.99,FreeWX-Wi 1.02,2013-02-20 18:45:00,
2013-02-20 13:50:00,38.7,5.9,29.74,West,279,3.0,6.3,25,0.00,,,-99.99,FreeWX-Wi 1.02,2013-02-20 18:50:00,
2013-02-20 13:55:00,35.6,4.1,29.74,West,278,3.0,5.4,26,0.00,,,-99.99,FreeWX-Wi 1.02,2013-02-20 18:55:00,
2013-02-20 14:00:00,34.3,3.0,29.74,WNW,282,2.0,5.8,26,0.00,,,-99.99,FreeWX-Wi 1.02,2013-02-20 19:00:00,
2013-02-20 14:05:00,33.3,3.0,29.76,WNW,282,2.0,5.4,27,0.00,,,-99.99,FreeWX-Wi 1.02,2013-02-20 19:05:00,
2013-02-20 14:10:00,33.1,2.8,29.76,West,278,2.0,6.3,27,0.00,,,-99.99,FreeWX-Wi 1.02,2013-02-20 19:10:00,
2013-02-20 14:15:00,32.7,2.5,29.76,WNW,282,2.0,8.1,27,0.00,,,-99.99,FreeWX-Wi 1.02,2013-02-20 19:15:00,
2013-02-20 14:20:00,33.1,2.8,29.76,WNW,284,3.0,8.1,27,0.00,,,-99.99,FreeWX-Wi 1.02,2013-02-20 19:20:00,
2013-02-20 14:25:00,33.4,3.0,29.76,WNW,286,3.0,4.9,27,0.00,,,-99.99,FreeWX-Wi 1.02,2013-02-20 19:25:00,
2013-02-20 14:30:00,33.8,2.7,29.76,WNW,293,3.0,6.3,26,0.00,,,-99.99,FreeWX-Wi 1.02,2013-02-20 19:30:00,
2013-02-20 14:35:00,34.7,3.4,29.76,WNW,298,3.0,5.8,26,0.00,,,-99.99,FreeWX-Wi 1.02,2013-02-20 19:35:00,
2013-02-20 14:40:00,35.1,3.7,29.76,WNW,296,3.0,6.3,26,0.00,,,-99.99,FreeWX-Wi 1.02,2013-02-20 19:40:00,
2013-02-20 14:45:00,35.4,3.9,29.76,WNW,289,3.0,8.1,26,0.00,,,-99.99,FreeWX-Wi 1.02,2013-02-20 19:45:00,
2013-02-20 14:50:00,35.4,3.9,29.76,WNW,288,3.0,5.8,26,0.00,,,-99.99,FreeWX-Wi 1.02,2013-02-20 19:50:00,
2013-02-20 14:55:00,35.4,3.9,29.76,WNW,282,3.0,8.1,26,0.00,,,-99.99,FreeWX-Wi 1.02,2013-02-20 19:55:00,
2013-02-20 15:00:00,34.3,3.0,29.76,West,281,3.0,8.1,26,0.00,,,-99.99,FreeWX-Wi 1.02,2013-02-20 20:00:00,
2013-02-20 15:05:00,34.0,2.7,29.76,WNW,282,3.0,6.3,26,0.00,,,-99.99,FreeWX-Wi 1.02,2013-02-20 20:05:00,
2013-02-20 15:10:00,33.6,3.2,29.76,WNW,283,3.0,7.6,27,0.00,,,-99.99,FreeWX-Wi 1.02,2013-02-20 20:10:00,
2013-02-20 15:15:00,33.3,3.0,29.76,WNW,286,3.0,5.8,27,0.00,,,-99.99,FreeWX-Wi 1.02,2013-02-20 20:15:00,
2013-02-20 15:20:00,32.7,2.5,29.76,WNW,290,3.0,6.3,27,0.00,,,-99.99,FreeWX-Wi 1.02,2013-02-20 20:20:00,
2013-02-20 15:25:00,32.4,2.1,29.76,WNW,291,3.0,7.2,27,0.00,,,-99.99,FreeWX-Wi 1.02,2013-02-20 20:25:00,
2013-02-20 15:30:00,31.8,1.8,29.76,WNW,291,3.0,4.9,27,0.00,,,-99.99,FreeWX-Wi 1.02,2013-02-20 20:30:00,
2013-02-20 15:35:00,31.3,1.2,29.76,WNW,291,3.0,8.7,27,0.00,,,-99.99,FreeWX-Wi 1.02,2013-02-20 20:35:00,
2013-02-20 15:40:00,31.6,1.6,29.76,WNW,294,3.0,8.7,27,0.00,,,-99.99,FreeWX-Wi 1.02,2013-02-20 20:40:00,
2013-02-20 15:45:00,32.2,1.9,29.76,WNW,301,3.0,4.0,27,0.00,,,-99.99,FreeWX-Wi 1.02,2013-02-20 20:45:00,
2013-02-20 15:50:00,32.2,1.9,29.76,WNW,300,3.0,6.3,27,0.00,,,-99.99,FreeWX-Wi 1.02,2013-02-20 20:50:00,
2013-02-20 15:55:00,31.3,1.2,29.76,WNW,297,3.0,6.3,27,0.00,,,-99.99,FreeWX-Wi 1.02,2013-02-20 20:55:00,
2013-02-20 16:00:00,30.4,0.5,29.76,WNW,300,3.0,6.3,27,0.00,,,-99.99,FreeWX-Wi 1.02,2013-02-20 21:00:00,
2013-02-20 16:05:00,30.2,0.3,29.79,WNW,301,3.0,8.3,27,0.00,,,-99.99,FreeWX-Wi 1.02,2013-02-20 21:05:00,
2013-02-20 16:10:00,30.2,0.3,29.79,WNW,298,3.0,4.9,27,0.00,,,-99.99,FreeWX-Wi 1.02,2013-02-20 21:10:00,
2013-02-20 16:15:00,30.0,0.1,29.79,WNW,294,3.0,3.6,27,0.00,,,-99.99,FreeWX-Wi 1.02,2013-02-20 21:15:00,
2013-02-20 16:20:00,29.7,-0.2,29.79,WNW,298,2.0,4.0,27,0.00,,,-99.99,FreeWX-Wi 1.02,2013-02-20 21:20:00,
2013-02-20 16:25:00,29.7,-0.2,29.79,WNW,298,2.0,5.8,27,0.00,,,-99.99,FreeWX-Wi 1.02,2013-02-20 21:25:00,
2013-02-20 16:30:00,29.7,-0.2,29.79,WNW,296,2.0,5.8,27,0.00,,,-99.99,FreeWX-Wi 1.02,2013-02-20 21:30:00,
2013-02-20 16:35:00,29.5,-0.4,29.79,WNW,297,2.0,6.3,27,0.00,,,-99.99,FreeWX-Wi 1.02,2013-02-20 21:35:00,
2013-02-20 16:40:00,29.1,-0.6,29.79,WNW,298,3.0,8.1,27,0.00,,,-99.99,FreeWX-Wi 1.02,2013-02-20 21:40:00,
2013-02-20 16:45:00,28.9,-0.8,29.79,WNW,295,3.0,6.3,27,0.00,,,-99.99,FreeWX-Wi 1.02,2013-02-20 21:45:00,
2013-02-20 16:50:00,28.8,-0.9,29.79,WNW,296,4.0,7.6,27,0.00,,,-99.99,FreeWX-Wi 1.02,2013-02-20 21:50:00,
2013-02-20 16:55:00,28.8,-0.9,29.79,WNW,296,4.0,8.1,27,0.00,,,-99.99,FreeWX-Wi 1.02,2013-02-20 21:55:00,
2013-02-20 17:00:00,28.8,-0.9,29.79,WNW,302,4.0,7.6,27,0.00,,,-99.99,FreeWX-Wi 1.02,2013-02-20 22:00:00,
2013-02-20 17:05:00,28.6,-1.1,29.79,WNW,298,4.0,4.9,27,0.00,,,-99.99,FreeWX-Wi 1.02,2013-02-20 22:05:00,
2013-02-20 17:10:00,28.4,-1.3,29.79,WNW,294,3.0,4.0,27,0.00,,,-99.99,FreeWX-Wi 1.02,2013-02-20 22:10:00,
2013-02-20 17:15:00,28.2,-1.5,29.79,WNW,292,3.0,3.6,27,0.00,,,-99.99,FreeWX-Wi 1.02,2013-02-20 22:15:00,
2013-02-20 17:20:00,27.9,-1.7,29.79,WNW,286,3.0,4.0,27,0.00,,,-99.99,FreeWX-Wi 1.02,2013-02-20 22:20:00,
2013-02-20 17:25:00,27.5,-2.0,29.79,WNW,284,2.0,5.8,27,0.00,,,-99.99,FreeWX-Wi 1.02,2013-02-20 22:25:00,
2013-02-20 17:30:00,27.5,-2.0,29.79,West,279,2.0,5.8,27,0.00,,,-99.99,FreeWX-Wi 1.02,2013-02-20 22:30:00,
2013-02-20 17:35:00,27.5,-2.0,29.79,West,279,2.0,4.0,27,0.00,,,-99.99,FreeWX-Wi 1.02,2013-02-20 22:35:00,
2013-02-20 17:40:00,27.5,-2.0,29.79,West,279,2.0,5.8,27,0.00,,,-99.99,FreeWX-Wi 1.02,2013-02-20 22:40:00,
2013-02-20 17:45:00,27.7,-1.8,29.79,West,279,2.0,4.0,27,0.00,,,-99.99,FreeWX-Wi 1.02,2013-02-20 22:45:00,
2013-02-20 17:50:00,27.9,-1.7,29.82,West,279,2.0,5.4,27,0.00,,,-99.99,FreeWX-Wi 1.02,2013-02-20 22:50:00,
2013-02-20 17:55:00,27.7,-1.8,29.82,West,279,2.0,3.6,27,0.00,,,-99.99,FreeWX-Wi 1.02,2013-02-20 22:55:00,
2013-02-20 18:00:00,27.1,-2.4,29.82,West,279,2.0,4.5,27,0.00,,,-99.99,FreeWX-Wi 1.02,2013-02-20 23:00:00,
2013-02-20 18:05:00,27.1,-2.4,29.82,West,279,2.0,6.3,27,0.00,,,-99.99,FreeWX-Wi 1.02,2013-02-20 23:05:00,
2013-02-20 18:10:00,27.3,-2.2,29.82,West,279,3.0,4.9,27,0.00,,,-99.99,FreeWX-Wi 1.02,2013-02-20 23:10:00,
2013-02-20 18:15:00,27.5,-2.0,29.82,West,279,3.0,5.4,27,0.00,,,-99.99,FreeWX-Wi 1.02,2013-02-20 23:15:00,
2013-02-20 18:20:00,27.5,-2.0,29.82,West,279,3.0,8.1,27,0.00,,,-99.99,FreeWX-Wi 1.02,2013-02-20 23:20:00,
2013-02-20 18:25:00,27.1,-2.4,29.82,West,279,3.0,5.4,27,0.00,,,-99.99,FreeWX-Wi 1.02,2013-02-20 23:25:00,
2013-02-20 18:30:00,27.0,-2.6,29.82,West,279,3.0,6.3,27,0.00,,,-99.99,FreeWX-Wi 1.02,2013-02-20 23:30:00,
2013-02-20 18:35:00,26.8,-2.7,29.82,West,279,3.0,7.6,27,0.00,,,-99.99,FreeWX-Wi 1.02,2013-02-20 23:35:00,
2013-02-20 18:40:00,26.6,-2.0,29.82,West,279,3.0,5.8,28,0.00,,,-99.99,FreeWX-Wi 1.02,2013-02-20 23:40:00,
2013-02-20 18:45:00,26.4,-2.2,29.82,West,279,3.0,5.8,28,0.00,,,-99.99,FreeWX-Wi 1.02,2013-02-20 23:45:00,
2013-02-20 18:50:00,26.4,-2.2,29.82,West,279,3.0,6.3,28,0.00,,,-99.99,FreeWX-Wi 1.02,2013-02-20 23:50:00,
2013-02-20 18:55:00,26.1,-2.6,29.82,West,279,3.0,5.8,28,0.00,,,-99.99,FreeWX-Wi 1.02,2013-02-20 23:55:00,
2013-02-20 19:00:00,26.1,-2.6,29.82,West,279,4.0,6.3,28,0.00,,,-99.99,FreeWX-Wi 1.02,2013-02-21 00:00:00,
2013-02-20 19:06:00,25.9,-2.7,29.82,West,279,3.0,5.8,28,0.00,,,-99.99,FreeWX-Wi 1.02,2013-02-21 00:06:00,
2013-02-20 19:11:00,25.5,-2.9,29.82,West,279,3.0,5.4,28,0.00,,,-99.99,FreeWX-Wi 1.02,2013-02-21 00:11:00,
2013-02-20 19:16:00,25.3,-3.1,29.82,West,279,3.0,5.4,28,0.00,,,-99.99,FreeWX-Wi 1.02,2013-02-21 00:16:00,
2013-02-20 19:21:00,25.5,-2.9,29.85,West,279,2.0,4.0,28,0.00,,,-99.99,FreeWX-Wi 1.02,2013-02-21 00:21:00,
2013-02-20 19:26:00,25.5,-2.9,29.85,West,279,2.0,5.8,28,0.00,,,-99.99,FreeWX-Wi 1.02,2013-02-21 00:26:00,
2013-02-20 19:31:00,25.5,-2.9,29.85,West,279,2.0,5.4,28,0.00,,,-99.99,FreeWX-Wi 1.02,2013-02-21 00:31:00,
2013-02-20 19:36:00,25.2,-3.3,29.85,West,279,2.0,6.3,28,0.00,,,-99.99,FreeWX-Wi 1.02,2013-02-21 00:36:00,
2013-02-20 19:41:00,25.3,-3.1,29.85,West,279,2.0,5.8,28,0.00,,,-99.99,FreeWX-Wi 1.02,2013-02-21 00:41:00,
2013-02-20 19:46:00,25.0,-3.5,29.85,West,279,2.0,5.8,28,0.00,,,-99.99,FreeWX-Wi 1.02,2013-02-21 00:46:00,
2013-02-20 19:51:00,25.0,-3.5,29.85,West,279,2.0,6.3,28,0.00,,,-99.99,FreeWX-Wi 1.02,2013-02-21 00:51:00,
2013-02-20 19:56:00,25.3,-3.1,29.85,West,279,2.0,7.2,28,0.00,,,-99.99,FreeWX-Wi 1.02,2013-02-21 00:56:00,
2013-02-20 20:01:00,25.2,-3.3,29.85,West,279,3.0,7.6,28,0.00,,,-99.99,FreeWX-Wi 1.02,2013-02-21 01:01:00,
2013-02-20 20:06:00,25.0,-3.5,29.85,West,279,3.0,6.3,28,0.00,,,-99.99,FreeWX-Wi 1.02,2013-02-21 01:06:00,
2013-02-20 20:11:00,24.6,-3.8,29.85,West,279,3.0,4.0,28,0.00,,,-99.99,FreeWX-Wi 1.02,2013-02-21 01:11:00,
2013-02-20 20:16:00,24.6,-3.8,29.85,West,279,3.0,5.4,28,0.00,,,-99.99,FreeWX-Wi 1.02,2013-02-21 01:16:00,
2013-02-20 20:21:00,24.4,-4.0,29.85,West,279,3.0,4.0,28,0.00,,,-99.99,FreeWX-Wi 1.02,2013-02-21 01:21:00,
2013-02-20 20:26:00,24.3,-4.2,29.85,West,279,2.0,4.9,28,0.00,,,-99.99,FreeWX-Wi 1.02,2013-02-21 01:26:00,
2013-02-20 20:31:00,24.4,-4.0,29.85,West,279,2.0,7.6,28,0.00,,,-99.99,FreeWX-Wi 1.02,2013-02-21 01:31:00,
2013-02-20 20:36:00,24.4,-4.0,29.85,West,279,3.0,6.3,28,0.00,,,-99.99,FreeWX-Wi 1.02,2013-02-21 01:36:00,
2013-02-20 20:41:00,24.4,-4.0,29.85,West,279,3.0,8.3,28,0.00,,,-99.99,FreeWX-Wi 1.02,2013-02-21 01:41:00,
2013-02-20 20:46:00,24.4,-4.0,29.85,West,279,3.0,7.6,28,0.00,,,-99.99,FreeWX-Wi 1.02,2013-02-21 01:46:00,
2013-02-20 20:51:00,24.1,-4.2,29.85,West,279,4.0,6.3,28,0.00,,,-99.99,FreeWX-Wi 1.02,2013-02-21 01:51:00,
2013-02-20 20:56:00,23.9,-4.4,29.85,West,279,4.0,7.6,28,0.00,,,-99.99,FreeWX-Wi 1.02,2013-02-21 01:56:00,
2013-02-20 21:01:00,23.9,-4.4,29.85,West,279,4.0,6.3,28,0.00,,,-99.99,FreeWX-Wi 1.02,2013-02-21 02:01:00,
2013-02-20 21:06:00,23.9,-4.4,29.85,West,279,3.0,4.9,28,0.00,,,-99.99,FreeWX-Wi 1.02,2013-02-21 02:06:00,
2013-02-20 21:11:00,23.7,-4.5,29.85,West,279,3.0,5.8,28,0.00,,,-99.99,FreeWX-Wi 1.02,2013-02-21 02:11:00,
2013-02-20 21:16:00,23.5,-4.7,29.85,West,279,3.0,6.3,28,0.00,,,-99.99,FreeWX-Wi 1.02,2013-02-21 02:16:00,
2013-02-20 21:21:00,23.5,-4.7,29.88,West,279,2.0,6.3,28,0.00,,,-99.99,FreeWX-Wi 1.02,2013-02-21 02:21:00,
2013-02-20 21:26:00,23.5,-4.7,29.88,West,279,2.0,3.1,28,0.00,,,-99.99,FreeWX-Wi 1.02,2013-02-21 02:26:00,
2013-02-20 21:31:00,23.4,-4.9,29.88,West,279,2.0,3.1,28,0.00,,,-99.99,FreeWX-Wi 1.02,2013-02-21 02:31:00,
2013-02-20 21:36:00,23.0,-4.5,29.88,West,279,1.0,5.4,29,0.00,,,-99.99,FreeWX-Wi 1.02,2013-02-21 02:36:00,
2013-02-20 21:41:00,23.4,-4.9,29.88,West,279,2.0,5.4,28,0.00,,,-99.99,FreeWX-Wi 1.02,2013-02-21 02:41:00,
2013-02-20 21:46:00,23.5,-4.7,29.88,West,279,2.0,4.0,28,0.00,,,-99.99,FreeWX-Wi 1.02,2013-02-21 02:46:00,
2013-02-20 21:51:00,23.2,-5.1,29.88,West,279,2.0,4.0,28,0.00,,,-99.99,FreeWX-Wi 1.02,2013-02-21 02:51:00,
2013-02-20 21:56:00,23.2,-5.1,29.88,West,279,2.0,4.9,28,0.00,,,-99.99,FreeWX-Wi 1.02,2013-02-21 02:56:00,
2013-02-20 22:01:00,23.0,-4.5,29.88,West,279,2.0,5.4,29,0.00,,,-99.99,FreeWX-Wi 1.02,2013-02-21 03:01:00,
2013-02-20 22:06:00,23.0,-4.5,29.88,West,279,2.0,4.0,29,0.00,,,-99.99,FreeWX-Wi 1.02,2013-02-21 03:06:00,
2013-02-20 22:11:00,22.8,-4.5,29.88,West,279,2.0,3.1,29,0.00,,,-99.99,FreeWX-Wi 1.02,2013-02-21 03:11:00,
2013-02-20 22:16:00,23.0,-4.5,29.88,West,279,1.0,3.1,29,0.00,,,-99.99,FreeWX-Wi 1.02,2013-02-21 03:16:00,
2013-02-20 22:21:00,22.5,-4.9,29.88,West,279,1.0,5.8,29,0.00,,,-99.99,FreeWX-Wi 1.02,2013-02-21 03:21:00,
2013-02-20 22:26:00,22.5,-4.9,29.88,West,279,1.0,4.0,29,0.00,,,-99.99,FreeWX-Wi 1.02,2013-02-21 03:26:00,
2013-02-20 22:31:00,22.3,-5.1,29.88,West,279,1.0,3.1,29,0.00,,,-99.99,FreeWX-Wi 1.02,2013-02-21 03:31:00,
2013-02-20 22:36:00,22.3,-5.1,29.88,West,279,1.0,4.0,29,0.00,,,-99.99,FreeWX-Wi 1.02,2013-02-21 03:36:00,
2013-02-20 22:41:00,22.5,-4.9,29.88,West,279,1.0,4.0,29,0.00,,,-99.99,FreeWX-Wi 1.02,2013-02-21 03:41:00,
2013-02-20 22:46:00,22.3,-5.1,29.88,West,279,1.0,3.1,29,0.00,,,-99.99,FreeWX-Wi 1.02,2013-02-21 03:46:00,
2013-02-20 22:51:00,21.9,-5.4,29.88,North,-999,0.0,0.0,29,0.00,,,-99.99,FreeWX-Wi 1.02,2013-02-21 03:51:00,
2013-02-20 22:56:00,22.1,-5.3,29.88,North,-999,0.0,4.9,29,0.00,,,-99.99,FreeWX-Wi 1.02,2013-02-21 03:56:00,
2013-02-20 23:01:00,22.1,-5.3,29.88,North,-999,0.0,5.4,29,0.00,,,-99.99,FreeWX-Wi 1.02,2013-02-21 04:01:00,
2013-02-20 23:06:00,22.5,-4.9,29.88,North,-999,0.0,4.9,29,0.00,,,-99.99,FreeWX-Wi 1.02,2013-02-21 04:06:00,
2013-02-20 23:11:00,22.3,-5.1,29.88,North,-999,0.0,4.0,29,0.00,,,-99.99,FreeWX-Wi 1.02,2013-02-21 04:11:00,
2013-02-20 23:16:00,22.1,-5.3,29.88,North,-999,0.0,4.0,29,0.00,,,-99.99,FreeWX-Wi 1.02,2013-02-21 04:16:00,
2013-02-20 23:21:00,21.9,-5.4,29.88,West,279,1.0,2.7,29,0.00,,,-99.99,FreeWX-Wi 1.02,2013-02-21 04:21:00,
2013-02-20 23:26:00,21.6,-5.8,29.88,North,-999,0.0,0.0,29,0.00,,,-99.99,FreeWX-Wi 1.02,2013-02-21 04:26:00,
2013-02-20 23:31:00,21.7,-5.6,29.88,North,-999,0.0,4.0,29,0.00,,,-99.99,FreeWX-Wi 1.02,2013-02-21 04:31:00,
2013-02-20 23:36:00,21.7,-5.6,29.88,North,-999,0.0,0.0,29,0.00,,,-99.99,FreeWX-Wi 1.02,2013-02-21 04:36:00,
2013-02-20 23:41:00,21.6,-5.8,29.88,North,-999,0.0,3.1,29,0.00,,,-99.99,FreeWX-Wi 1.02,2013-02-21 04:41:00,
2013-02-20 23:46:00,21.6,-5.8,29.88,North,-999,0.0,0.0,29,0.00,,,-99.99,FreeWX-Wi 1.02,2013-02-21 04:46:00,
2013-02-20 23:51:00,21.6,-5.8,29.91,North,-999,0.0,0.0,29,0.00,,,-99.99,FreeWX-Wi 1.02,2013-02-21 04:51:00,
2013-02-20 23:56:00,21.6,-5.8,29.91,North,-999,0.0,3.6,29,0.00,,,-99.99,FreeWX-Wi 1.02,2013-02-21 04:56:00,